GW4324 Weather Reports


time (UTC)temp
F
wind
direction
speed
knots
gust
knots
rain 1hr
in
rain 24hr
in
rain mn
in
humidity
%
barometer
mb
20260506150920 59 176 1.7 2.6 0.02 0.32 0.32 98 1009.6
20260506150416 59 154 0.9 2.6 0.02 0.32 0.32 98 1009.5
20260506145913 59 117 1.7 1.7 0.02 0.31 0.31 98 1009.5
20260506145409 59 96 1.7 1.7 0.05 0.31 0.31 98 1009.7
20260506144907 59 180 2.6 2.6 0.05 0.31 0.31 98 1009.6
20260506144403 59 139 1.7 1.7 0.02 0.30 0.30 98 1009.9
20260506143902 59 196 2.6 2.6 0.05 0.30 0.30 97 1010.0
20260506143358 59 211 2.6 3.5 0.05 0.29 0.29 97 1010.0
20260506142856 59 193 3.5 3.5 0.05 0.29 0.29 98 1009.8
20260506142354 59 153 1.7 2.6 0.00 0.28 0.28 98 1009.9
20260506141852 59 230 2.6 2.6 0.02 0.28 0.28 98 1009.8
20260506141350 59 169 2.6 3.5 0.05 0.28 0.28 97 1009.9
20260506140848 59 187 2.6 3.5 0.07 0.28 0.28 98 1009.8
20260506140344 59 239 1.7 2.6 0.09 0.28 0.28 98 1009.8
20260506135841 59 198 1.7 2.6 0.12 0.27 0.27 98 1009.8
20260506135338 58 176 1.7 2.6 0.17 0.26 0.26 98 1009.7
20260506134834 58 104 1.7 2.6 0.14 0.25 0.25 98 1009.9
20260506134331 58 245 0.0 1.7 0.05 0.23 0.23 98 1009.7
20260506133828 58 110 1.7 1.7 0.07 0.22 0.22 98 1009.6
20260506133325 58 61 1.7 1.7 0.05 0.22 0.22 99 1009.5
20260506132821 58 122 0.0 1.7 0.07 0.21 0.21 99 1009.5
20260506132319 58 112 1.7 1.7 0.07 0.21 0.21 99 1009.8
20260506131817 58 128 1.7 1.7 0.05 0.20 0.20 99 1009.9
20260506131312 58 86 1.7 1.7 0.05 0.20 0.20 99 1010.0
20260506130810 57 73 0.9 2.6 0.05 0.19 0.19 99 1010.0
20260506130306 57 132 0.9 1.7 0.07 0.19 0.19 99 1009.9
20260506125804 57 142 2.6 3.5 0.14 0.18 0.18 99 1009.8
20260506125305 57 166 1.7 2.6 0.17 0.17 0.17 99 1009.8
20260506124800 57 162 1.7 2.6 0.12 0.16 0.16 99 1010.1
20260506124257 57 140 1.7 2.6 0.12 0.15 0.15 99 1010.2
20260506123755 57 127 1.7 1.7 0.07 0.13 0.13 99 1010.4
20260506123253 57 125 1.7 2.6 0.09 0.13 0.13 99 1010.2
20260506122750 57 116 1.7 2.6 0.14 0.12 0.12 99 1010.6
20260506122247 57 97 0.0 2.6 0.14 0.11 0.11 99 1010.6
20260506121745 57 76 0.0 1.7 0.14 0.09 0.09 99 1010.8
20260506121241 57 121 0.9 1.7 0.12 0.08 0.08 99 1010.7
20260506120738 57 84 0.0 1.7 0.07 0.07 0.07 99 1010.7
20260506120236 57 174 0.9 1.7 0.05 0.06 0.06 99 1010.4
20260506115734 57 47 0.0 1.7 0.02 0.06 0.06 99 1010.3
20260506115232 57 141 1.7 1.7 0.05 0.05 0.05 99 1010.3
20260506114730 57 95 1.7 1.7 0.02 0.05 0.05 99 1010.2
20260506114227 57 55 0.0 1.7 0.02 0.04 0.04 99 1009.9
20260506113725 57 66 1.7 2.6 0.05 0.04 0.04 98 1010.0
20260506113223 57 37 0.0 1.7 0.02 0.04 0.04 98 1009.9
20260506112719 57 103 1.7 3.5 0.02 0.04 0.04 98 1009.9
20260506112216 57 114 0.0 1.7 0.05 0.03 0.03 98 1010.0
20260506111714 57 89 0.9 1.7 0.07 0.03 0.03 98 1010.0
20260506111212 57 93 0.9 1.7 0.05 0.02 0.02 98 1009.9
20260506110708 57 161 0.9 1.7 0.05 0.02 0.02 97 1010.1
20260506110206 57 53 2.6 2.6 0.02 0.01 0.01 97 1009.6
20260506105702 57 131 0.0 1.7 0.02 0.01 0.01 96 1009.8
20260506105159 57 132 1.7 2.6 0.00 0.00 0.00 97 1009.7
20260506104658 57 197 0.9 0.9 0.02 0.00 0.00 97 1009.7
20260506104155 57 110 1.7 2.6 0.02 0.00 0.00 96 1009.5
20260506103652 57 110 1.7 1.7 0.00 0.00 0.00 96 1009.4
20260506103149 57 114 0.0 1.7 0.00 0.00 0.00 96 1009.5
20260506102647 57 189 0.0 1.7 0.00 0.00 0.00 96 1009.5
20260506102144 57 139 0.0 1.7 0.00 0.00 0.00 95 1009.5
20260506101640 57 133 0.0 1.7 0.00 0.00 0.00 96 1009.5
20260506101137 57 179 1.7 2.6 0.00 0.00 0.00 96 1009.5
20260506100636 57 336 0.0 1.7 0.00 0.00 0.00 96 1009.2
20260506100134 57 14 0.9 1.7 0.00 0.00 0.00 96 1009.2
20260506095632 57 113 2.6 2.6 0.00 0.00 0.00 97 1009.3
20260506095128 56 48 0.9 1.7 0.00 0.00 0.00 97 1009.4
20260506094626 56 4 1.7 1.7 0.00 0.00 0.00 96 1009.3
20260506094123 57 337 2.6 2.6 0.00 0.00 0.00 95 1009.2
20260506093622 58 322 0.0 2.6 0.00 0.00 0.00 93 1009.2
20260506093119 58 133 1.7 2.6 0.00 0.00 0.00 92 1009.1
20260506092617 58 80 0.0 1.7 0.00 0.00 0.00 92 1009.2
20260506092113 57 91 1.7 1.7 0.00 0.00 0.00 92 1009.3
20260506091611 57 99 0.9 0.9 0.00 0.00 0.00 93 1009.3
20260506091108 57 50 0.9 1.7 0.00 0.00 0.00 93 1009.3
20260506090606 57 68 0.9 1.7 0.00 0.00 0.00 93 1009.3
20260506085600 57 358 0.9 1.7 0.00 0.00 0.00 93 1009.4
20260506085056 57 22 0.0 0.0 0.00 0.00 0.00 93 1009.4
20260506084553 57 31 0.0 1.7 0.00 0.00 0.00 92 1009.2
20260506084049 57 60 0.0 0.9 0.00 0.00 0.00 92 1009.3
20260506083546 57 55 0.0 1.7 0.00 0.00 0.00 91 1009.4
20260506083043 57 129 0.0 0.9 0.00 0.00 0.00 91 1009.3
20260506082540 58 15 0.9 1.7 0.00 0.00 0.00 91 1009.3
20260506082036 58 7 1.7 1.7 0.00 0.00 0.00 90 1009.4
20260506081534 58 142 0.0 0.9 0.00 0.00 0.00 91 1009.2
20260506081031 58 116 0.9 1.7 0.00 0.00 0.00 91 1009.5
20260506080529 57 142 1.7 1.7 0.00 0.00 0.00 91 1009.5
20260506073512 57 354 0.0 1.7 0.00 0.00 0.00 93 1009.4
20260506073009 57 6 0.0 0.9 0.00 0.00 0.00 93 1009.5
20260506072506 57 135 0.0 0.9 0.00 0.00 0.00 94 1009.3
20260506072004 57 102 0.0 0.9 0.00 0.00 0.00 94 1009.5
20260506071502 57 20 0.9 1.7 0.00 0.00 0.00 94 1009.4
20260506070959 57 57 0.0 1.7 0.00 0.00 0.00 94 1009.4
20260506070456 57 131 1.7 1.7 0.00 0.00 0.00 94 1009.4
20260506062433 57 119 1.7 2.6 0.00 0.00 0.00 93 1010.0
20260506061929 57 321 0.0 0.9 0.00 0.00 0.00 94 1009.9
20260506061426 56 300 1.7 2.6 0.00 0.00 0.00 94 1009.9
20260506060924 57 25 1.7 2.6 0.00 0.00 0.00 92 1009.9
20260506060422 57 82 0.9 1.7 0.00 0.00 0.00 92 1009.8
20260506051353 56 309 0.0 0.9 0.00 0.00 0.00 93 1010.6
20260506050851 57 47 0.0 0.9 0.00 0.00 0.00 91 1010.6
20260506050348 57 22 0.0 0.0 0.00 0.00 0.00 90 1010.6
20260506044838 57 127 1.7 1.7 0.00 0.00 0.00 90 1010.8
20260506044337 57 167 0.9 2.6 0.00 0.00 0.00 90 1010.5
20260506043833 57 124 1.7 1.7 0.00 0.00 0.00 91 1010.5
20260506043331 57 80 0.0 1.7 0.00 0.00 0.00 91 1010.7
20260506042829 57 144 0.0 0.9 0.00 0.00 0.00 92 1010.7
20260506042328 57 67 0.9 1.7 0.00 0.00 0.00 89 1010.5
20260506041826 57 124 0.0 0.9 0.00 0.00 0.00 89 1010.6
20260506041323 57 147 0.0 0.0 0.00 0.00 0.00 90 1010.7
20260506040820 57 109 0.9 1.7 0.00 0.00 0.00 90 1010.5
20260506040317 57 129 0.0 1.7 0.00 0.00 0.00 91 1010.3
20260506035813 56 302 0.0 1.7 0.00 0.00 0.00 91 1010.4
20260506035311 57 50 0.0 0.9 0.00 0.00 0.00 90 1010.3
20260506034808 57 269 0.0 1.7 0.00 0.00 0.00 90 1010.6
20260506034305 58 5 0.0 0.0 0.00 0.00 0.00 87 1010.6
20260506033802 57 114 1.7 3.5 0.00 0.00 0.00 87 1010.5
20260506033259 58 157 0.0 0.9 0.00 0.00 0.00 86 1010.6
20260506032756 58 44 0.0 1.7 0.00 0.00 0.00 86 1010.6
20260506032253 59 141 0.0 1.7 0.00 0.00 0.00 85 1010.5
20260506031749 59 116 2.6 2.6 0.00 0.00 0.00 85 1010.4
20260506031247 59 164 0.0 0.9 0.00 0.00 0.00 85 1010.7
20260506030745 59 119 0.0 0.9 0.00 0.00 0.00 84 1010.8
20260506030242 59 156 0.0 1.7 0.00 0.00 0.00 86 1010.8
20260506025739 58 60 0.0 0.9 0.00 0.00 0.00 88 1010.6
20260506025235 58 321 0.0 0.9 0.00 0.00 0.00 88 1010.8
20260506024732 58 141 0.0 0.9 0.00 0.00 0.00 87 1010.8
20260506024229 58 133 1.7 1.7 0.00 0.00 0.00 88 1010.8
20260506023725 58 241 0.9 1.7 0.00 0.00 0.00 87 1010.9
20260506023222 58 147 0.0 0.9 0.00 0.00 0.00 88 1010.8
20260506022719 58 75 1.7 1.7 0.00 0.00 0.00 88 1010.7
20260506022217 58 22 0.0 1.7 0.00 0.00 0.00 88 1010.8
20260506021715 58 76 0.0 0.9 0.00 0.00 0.00 86 1010.5
20260506021211 59 44 0.0 0.9 0.00 0.00 0.00 85 1010.7
20260506020708 59 122 0.0 0.9 0.00 0.00 0.00 83 1010.7
20260506020206 60 127 1.7 1.7 0.00 0.00 0.00 82 1010.7
20260506015703 61 89 0.0 1.7 0.00 0.00 0.00 80 1010.7
20260506015201 61 65 0.0 1.7 0.00 0.00 0.00 79 1010.6
20260506014658 61 142 1.7 2.6 0.00 0.00 0.00 80 1010.6
20260506014153 61 114 0.9 1.7 0.00 0.00 0.00 81 1010.7
20260506013652 61 66 0.0 0.0 0.00 0.00 0.00 80 1010.5
20260506013148 62 53 0.0 0.9 0.00 0.00 0.00 79 1010.5
20260506012644 61 55 0.0 0.0 0.00 0.00 0.00 79 1010.6
20260506012141 62 89 0.0 0.9 0.00 0.00 0.00 79 1010.5
20260506011639 63 30 0.9 1.7 0.00 0.00 0.00 77 1010.4
20260506011135 64 47 1.7 1.7 0.00 0.00 0.00 72 1010.6
20260506010634 65 140 0.0 1.7 0.00 0.00 0.00 71 1010.4
20260506010131 65 89 0.0 0.0 0.00 0.00 0.00 71 1010.4
20260506005627 66 144 0.0 0.9 0.00 0.00 0.00 70 1010.4
20260506005124 67 160 0.0 0.9 0.00 0.00 0.00 67 1010.3
20260506004620 66 186 0.9 1.7 0.00 0.00 0.00 68 1010.5
20260506004118 66 177 0.9 0.9 0.00 0.00 0.00 69 1010.0
20260506003614 66 42 0.9 0.9 0.00 0.00 0.00 69 1010.1
20260506003110 67 65 0.0 0.9 0.00 0.00 0.00 65 1010.0
20260506002606 68 55 0.0 0.0 0.00 0.00 0.00 65 1010.0
20260506002102 68 130 0.9 1.7 0.00 0.00 0.00 64 1010.0
20260506001559 68 131 0.9 0.9 0.00 0.00 0.00 64 1009.8
20260506001056 68 119 0.0 0.0 0.00 0.00 0.00 63 1009.8
20260506000553 69 60 0.0 0.9 0.00 0.00 0.00 63 1009.7
20260506000050 69 164 0.0 0.0 0.00 0.00 0.00 62 1009.8
20260505235548 70 164 0.0 0.9 0.00 0.00 0.00 61 1009.7
20260505235045 70 177 1.7 1.7 0.00 0.00 0.00 61 1009.7
20260505234542 70 173 0.9 1.7 0.00 0.00 0.00 61 1009.7
20260505234039 70 240 0.0 1.7 0.00 0.00 0.00 62 1009.6
20260505233536 70 304 0.0 1.7 0.00 0.00 0.00 62 1009.7
20260505233034 70 318 0.0 0.0 0.00 0.00 0.00 62 1009.8
20260505232531 71 230 0.0 0.0 0.00 0.00 0.00 61 1009.4
20260505232028 71 217 0.0 0.0 0.00 0.00 0.00 60 1009.7
20260505231525 71 217 1.7 2.6 0.00 0.00 0.00 58 1009.5
20260505231024 72 244 1.7 2.6 0.00 0.00 0.00 58 1009.5
20260505230521 72 209 0.0 2.6 0.00 0.00 0.00 56 1009.5
20260505230018 73 245 0.0 3.5 0.00 0.00 0.00 55 1009.2
20260505225514 73 196 2.6 4.3 0.00 0.00 0.00 54 1009.2
20260505225010 74 215 1.7 2.6 0.00 0.00 0.00 53 1009.5
20260505224508 74 187 0.9 2.6 0.00 0.00 0.00 51 1009.4
20260505224005 74 273 2.6 4.3 0.00 0.00 0.00 51 1009.4
20260505223502 74 284 0.9 3.5 0.00 0.00 0.00 51 1009.4
20260505222958 74 299 2.6 2.6 0.00 0.00 0.00 50 1009.5
20260505222454 74 83 0.9 5.2 0.00 0.00 0.00 49 1009.3
20260505221950 75 306 4.3 5.2 0.00 0.00 0.00 47 1009.4
20260505221448 75 206 3.5 3.5 0.00 0.00 0.00 46 1009.1
20260505220944 76 5 2.6 5.2 0.00 0.00 0.00 45 1009.1
20260505220441 76 301 2.6 5.2 0.00 0.00 0.00 44 1008.9
20260505215939 77 345 2.6 6.1 0.00 0.00 0.00 43 1008.9
20260505215437 77 237 1.7 2.6 0.00 0.00 0.00 43 1008.9
20260505214935 77 192 0.9 3.5 0.00 0.00 0.00 41 1008.7
20260505214432 78 189 1.7 4.3 0.00 0.00 0.00 41 1008.8
20260505213929 78 219 1.7 3.5 0.00 0.00 0.00 41 1008.6
20260505213427 78 229 0.0 2.6 0.00 0.00 0.00 41 1008.6
20260505212923 78 188 1.7 4.3 0.00 0.00 0.00 40 1008.3
20260505212420 79 207 1.7 7.0 0.00 0.00 0.00 40 1008.3
20260505211916 79 222 2.6 7.8 0.00 0.00 0.00 40 1008.2
20260505211414 79 262 3.5 8.7 0.00 0.00 0.00 38 1008.2
20260505210910 80 216 4.3 9.6 0.00 0.00 0.00 38 1008.2
20260505210408 80 214 1.7 5.2 0.00 0.00 0.00 38 1008.2
20260505205904 81 225 5.2 7.8 0.00 0.00 0.00 37 1008.1
20260505205403 82 203 3.5 7.8 0.00 0.00 0.00 35 1008.2
20260505204859 82 315 0.9 9.6 0.00 0.00 0.00 39 1008.3
20260505204357 80 230 3.5 13.9 0.00 0.00 0.00 36 1008.4
20260505203854 80 200 0.9 10.4 0.00 0.00 0.00 39 1008.5
20260505203350 79 233 3.5 8.7 0.00 0.00 0.00 37 1008.4
20260505202847 79 248 0.9 6.1 0.00 0.00 0.00 39 1008.6
20260505202343 79 204 2.6 5.2 0.00 0.00 0.00 37 1008.4
20260505201840 80 218 5.2 13.0 0.00 0.00 0.00 35 1008.3
20260505201337 80 216 5.2 10.4 0.00 0.00 0.00 36 1008.6
20260505200835 80 213 4.3 13.0 0.00 0.00 0.00 36 1008.2
20260505200332 80 217 9.6 11.3 0.00 0.00 0.00 34 1008.4
20260505195828 80 205 11.3 16.5 0.00 0.00 0.00 35 1008.5
20260505195325 80 213 9.6 13.0 0.00 0.00 0.00 35 1008.5
20260505194822 80 214 8.7 14.8 0.00 0.00 0.00 35 1008.5
20260505194319 81 219 12.2 14.8 0.00 0.00 0.00 35 1008.5
20260505193814 81 221 7.8 17.4 0.00 0.00 0.00 34 1008.3
20260505193312 81 209 6.1 11.3 0.00 0.00 0.00 36 1008.4
20260505192810 80 215 11.3 16.5 0.00 0.00 0.00 36 1008.5
20260505192310 80 207 13.9 24.3 0.00 0.00 0.00 36 1008.3
20260505191806 81 195 11.3 20.0 0.00 0.00 0.00 36 1008.4
20260505191304 82 209 11.3 22.6 0.00 0.00 0.00 35 1008.2
20260505190800 82 215 13.0 13.9 0.00 0.00 0.00 37 1008.1
20260505190255 82 225 12.2 17.4 0.00 0.00 0.00 37 1008.6
20260505185752 82 213 14.8 16.5 0.00 0.00 0.00 36 1008.3
20260505185248 83 227 19.1 25.2 0.00 0.00 0.00 34 1008.6
20260505184744 81 229 10.4 20.0 0.00 0.00 0.00 36 1008.7
20260505184242 83 204 8.7 18.2 0.00 0.00 0.00 37 1008.8
20260505183738 82 212 7.8 16.5 0.00 0.00 0.00 38 1008.8
20260505183236 82 167 7.8 14.8 0.00 0.00 0.00 39 1008.8
20260505182732 83 193 7.0 11.3 0.00 0.00 0.00 40 1008.9
20260505182229 81 202 12.2 15.6 0.00 0.00 0.00 38 1009.1
20260505181725 82 205 5.2 18.2 0.00 0.00 0.00 40 1009.4
20260505181223 80 212 7.0 14.8 0.00 0.00 0.00 41 1009.4
20260505180719 81 199 8.7 18.2 0.00 0.00 0.00 39 1009.5
20260505180216 81 207 8.7 9.6 0.00 0.00 0.00 39 1009.4
20260505175712 81 168 4.3 12.2 0.00 0.00 0.00 39 1009.6
20260505175209 80 189 12.2 13.9 0.00 0.00 0.00 39 1009.8
20260505174705 80 191 7.8 16.5 0.00 0.00 0.00 40 1009.7
20260505174202 80 207 4.3 10.4 0.00 0.00 0.00 41 1009.9
20260505173658 79 211 7.8 13.9 0.00 0.00 0.00 41 1009.8
20260505173155 79 200 10.4 13.9 0.00 0.00 0.00 42 1009.7
20260505172652 80 235 9.6 13.0 0.00 0.00 0.00 41 1009.5
20260505172149 79 202 5.2 10.4 0.00 0.00 0.00 44 1009.8
20260505171649 80 235 8.7 14.8 0.00 0.00 0.00 42 1009.8
20260505171146 80 189 4.3 14.8 0.00 0.00 0.00 42 1009.6
20260505170643 80 233 9.6 13.9 0.00 0.00 0.00 40 1009.8
20260505170140 80 216 7.0 14.8 0.00 0.00 0.00 43 1009.7
20260505165640 80 223 11.3 13.0 0.00 0.00 0.00 41 1010.0
20260505165137 80 197 9.6 19.1 0.00 0.00 0.00 42 1009.9
20260505164632 79 200 10.4 19.1 0.00 0.00 0.00 42 1010.0
20260505164130 79 204 12.2 17.4 0.00 0.00 0.00 41 1010.3
20260505163628 79 202 10.4 14.8 0.00 0.00 0.00 42 1010.2
20260505163125 78 215 8.7 13.0 0.00 0.00 0.00 44 1010.6
20260505162623 79 197 13.9 16.5 0.00 0.00 0.00 43 1010.4
20260505162120 78 200 7.8 20.0 0.00 0.00 0.00 43 1010.6
20260505161617 79 244 3.5 7.0 0.00 0.00 0.00 45 1010.6
20260505161114 78 190 6.1 17.4 0.00 0.00 0.00 43 1010.6
20260505160612 78 207 7.8 17.4 0.00 0.00 0.00 44 1010.7
20260505160109 79 182 7.8 17.4 0.00 0.00 0.00 44 1010.8
20260505153049 77 222 9.6 11.3 0.00 0.00 0.00 46 1011.3
20260505152545 76 216 7.8 16.5 0.00 0.00 0.00 48 1011.0
20260505152041 76 213 7.8 13.9 0.00 0.00 0.00 49 1011.2
20260505151536 76 204 7.8 10.4 0.00 0.00 0.00 49 1011.3